DABCDAUH

Guest
Details From DABC - MOHAMED BOUDIAF INTL
To DAUH - OUED IRARA
Flight Number -
Tags generated
Created
Modified
Stats Distance 280 nm / 519 km
Max Altitude 31,600 ft / 9,632 m
Waypoints 4
Social Downloads 5
Likes 0
Share VATSIM

Download

Looking for another format? Having issues loading an existing format? Contact us
Advertisement - Login to hide

Notes

Basic altitude profile: - Ascent Rate: 2500ft/min - Ascent Speed: 250kts - Cruise Altitude: 35000ft - Cruise Speed: 420kts - Descent Rate: 1500ft/min - Descent Speed: 250kts Options: - Use NATs: yes - Use PACOTS: yes - Use low airways: yes - Use high airways: yes

Route

DABC NADJI J12 TGU DAUH

ID Type Via Altitude Latitude Longitude Leg Dist Tot Dist Heading (true) Name
O DABC APT - 0 ft / 0 m 36.27604˚ 6.62028˚ - 0 nm - MOHAMED BOUDIAF INTL
NADJI FIX - 31,600 ft / 9,632 m 34.80000˚ 6.65000˚ 88 nm 88 nm 179° / 179° -
TGU VOR J12 (AWY-HI) 16,800 ft / 5,121 m 33.05694˚ 6.08861˚ 108 nm 197 nm 195° / 195° TOUGGOURT VOR-DME
O DAUH APT - 0 ft / 0 m 31.67290˚ 6.14046˚ 83 nm 280 nm 178° / 178° OUED IRARA

Altitude Profile

Advertisement - Login to hide

Weather


0- 5 10 15 20 25 30 35+ Temperature / ° C

Clouds and Precipitation
Forecast for 2018-05-22 18:00 UTC. Updated 5 hours ago

Ground ~20,000 ft ~40,000 ft Winds

DABC

Details ICAO DABC (CZL)
Name MOHAMED BOUDIAF INTL
Region Algeria
Timezone Africa/Algiers (UTC+1.0)
Stats Elevation 2,265 ft / 690 m (AMSL)
Location 36.276042° 6.620278°
Runways 2
Magnetic Variation 1.774° E

METAR

DABC 222130Z 00000KT 9999 SCT030 13/11 Q1020

Decode

TAF

TAF DABC 221700Z 2218/2318 05012KT 9999 FEW023 SCT030 PROB30 TEMPO 2218/2224 FEW020CB BECMG 2220/2222 VRB02KT

Decode

Departure Runways

ID Width Length Bearing (true) Bearing (mag) Surface Threshold Offset Overrun Length
14 148 ft / 45 m 7,886 ft / 2,404 m 136.03° 134.26° Asphalt 0 ft / 0 m 340 ft / 104 m
16 148 ft / 45 m 9,871 ft / 3,009 m 159.14° 157.37° Asphalt 0 ft / 0 m 400 ft / 122 m
32 148 ft / 45 m 7,886 ft / 2,404 m 316.04° 314.27° Asphalt 0 ft / 0 m 200 ft / 61 m
34 148 ft / 45 m 9,871 ft / 3,009 m 339.15° 337.38° Asphalt 0 ft / 0 m 400 ft / 122 m

DAUH

Details ICAO DAUH (HME)
Name OUED IRARA
Region Algeria
Timezone Africa/Algiers (UTC+1.0)
Stats Elevation 463 ft / 141 m (AMSL)
Location 31.672900° 6.140458°
Runways 1
Magnetic Variation 1.458° E

METAR

DAUH 222130Z 01005KT CAVOK 28/10 Q1015

Decode

TAF

TAF DAUH 221700Z 2218/2318 36010KT CAVOK PROB30 TEMPO 2220/2303 5000 HZ BECMG 2220/2223 10012KT

Decode

Destination Runways

ID Width Length Bearing (true) Bearing (mag) Surface Threshold Offset Overrun Length
18 148 ft / 45 m 9,952 ft / 3,034 m 184.21° 182.75° Asphalt 0 ft / 0 m 328 ft / 100 m
36 148 ft / 45 m 9,952 ft / 3,034 m 4.20° 2.74° Asphalt 0 ft / 0 m 328 ft / 100 m

Popular Alternatives